Weather History for KLWD - November, 2012

Change the Weather History Date:

Tuesday, November 13, 2012

  Actual Average Record
Temperature  
Mean Temperature 37 °F 41 °F  
Max Temperature 50 °F 50 °F 79 °F (1999)
Min Temperature 24 °F 32 °F 1 °F (1986)
Degree Days  
Heating Degree Days 28 24  
Month to date heating degree days 246 274  
Since 1 July heating degree days 781 758  
Cooling Degree Days 0 0  
Month to date cooling degree days 1 0  
Year to date cooling degree days 1312 946  
Moisture  
Dew Point 25 °F    
Average Humidity 59    
Maximum Humidity 75    
Minimum Humidity 42    
Precipitation  
Precipitation 0.00 in 0.07 in 1.21 in (1972)
Month to date precipitation 1.65 1.24  
Sea Level Pressure  
Sea Level Pressure 30.41 in    
Wind  
Wind Speed 7 mph (South)    
Max Wind Speed 14 mph    
Max Gust Speed 18 mph    
Visibility 10 miles    
Events      
T = Trace of Precipitation, MM = Missing Value Source: NWS Daily Summary

Daily Weather History Graph

Daily Weather History Graph

Search for Another Location

Airport or City:

Trip Planner

Search our weather history database for the weather conditions in past years. The results will help you decide how hot, cold, wet, or windy it might be!

Date:

Astronomy

Nov. 13, 2012 Rise Set
Actual Time 7:00 AM CST 4:59 PM CST
Civil Twilight 6:31 AM CST 5:28 PM CST
Nautical Twilight 5:58 AM CST 6:01 PM CST
Astronomical Twilight 5:25 AM CST 6:33 PM CST
Moon 6:39 AM CST (11/13) 4:52 PM CST (11/13)
Length of Visible Light 10h 56m
Length of Day
9h 58m
Waning Crescent, 0% of the Moon is Illuminated
Nov 13
Waning Crescent
Nov 13
New
Nov 20
First Quarter
Nov 28
Full
Dec 6
Last Quarter

Hourly Weather History & Observations

Time (CST) Temp. Windchill Dew Point Humidity Pressure Visibility Wind Dir Wind Speed Gust Speed Precip Events Conditions
12:53 AM 28.0 °F 22.8 °F 18.0 °F 66% 30.43 in 10.0 mi WSW 4.6 mph - N/A   Clear
1:53 AM 27.0 °F 21.6 °F 18.0 °F 69% 30.44 in 10.0 mi SW 4.6 mph - N/A   Clear
2:53 AM 25.0 °F 18.1 °F 17.1 °F 72% 30.45 in 10.0 mi SW 5.8 mph - N/A   Clear
3:53 AM 25.0 °F 17.1 °F 18.0 °F 75% 30.44 in 10.0 mi SSW 6.9 mph - N/A   Clear
4:53 AM 27.0 °F 19.5 °F 18.0 °F 69% 30.45 in 10.0 mi South 6.9 mph - N/A   Clear
5:53 AM 26.1 °F 17.6 °F 18.0 °F 71% 30.45 in 10.0 mi South 8.1 mph - N/A   Clear
6:53 AM 25.0 °F 19.3 °F 18.0 °F 75% 30.46 in 10.0 mi SSE 4.6 mph - N/A   Clear
7:53 AM 27.0 °F 19.5 °F 19.9 °F 75% 30.46 in 10.0 mi South 6.9 mph - N/A   Clear
8:53 AM 30.9 °F 23.5 °F 21.0 °F 67% 30.46 in 10.0 mi SSE 8.1 mph - N/A   Clear
9:53 AM 37.9 °F 31.5 °F 24.1 °F 57% 30.45 in 10.0 mi South 9.2 mph - N/A   Clear
10:53 AM 42.1 °F 36.1 °F 23.0 °F 47% 30.45 in 10.0 mi SSE 10.4 mph 17.3 mph N/A   Clear
11:53 AM 45.0 °F 40.1 °F 25.0 °F 46% 30.41 in 10.0 mi South 9.2 mph 16.1 mph N/A   Clear
12:53 PM 48.0 °F - 27.0 °F 44% 30.39 in 10.0 mi SSE 8.1 mph - N/A   Clear
1:53 PM 48.9 °F - 28.0 °F 44% 30.37 in 10.0 mi Variable 6.9 mph - N/A   Clear
2:53 PM 50.0 °F - 28.0 °F 43% 30.35 in 10.0 mi SSE 8.1 mph - N/A   Clear
3:53 PM 46.9 °F - 30.9 °F 54% 30.36 in 10.0 mi SSE 3.5 mph - N/A   Clear
4:53 PM 46.0 °F 42.5 °F 30.9 °F 56% 30.35 in 10.0 mi SE 6.9 mph - N/A   Clear
5:53 PM 45.0 °F 40.6 °F 28.9 °F 53% 30.35 in 10.0 mi SSE 8.1 mph - N/A   Clear
6:53 PM 43.0 °F 39.5 °F 30.0 °F 60% 30.38 in 10.0 mi SSE 5.8 mph - N/A   Clear
7:53 PM 42.1 °F 37.7 °F 30.0 °F 62% 30.37 in 10.0 mi SSE 6.9 mph - N/A   Clear
8:53 PM 41.0 °F 36.4 °F 30.0 °F 65% 30.38 in 10.0 mi South 6.9 mph - N/A   Clear
9:53 PM 41.0 °F 35.8 °F 30.9 °F 67% 30.38 in 10.0 mi South 8.1 mph - N/A   Clear
10:53 PM 41.0 °F 35.8 °F 30.9 °F 67% 30.38 in 10.0 mi South 8.1 mph - N/A   Clear
11:53 PM 39.9 °F 35.8 °F 30.9 °F 70% 30.37 in 10.0 mi SSE 5.8 mph - N/A   Clear